Weather History for Salem, IL

Change the Weather History Date:

Wednesday, February 12, 2014

  Actual Average Record
Temperature  
Mean Temperature 18 °F -  
Max Temperature 32 °F 40 °F 66 °F (1990)
Min Temperature 3 °F 23 °F -4 °F (1981)
Degree Days  
Heating Degree Days 48    
Moisture  
Dew Point 9 °F    
Average Humidity 67    
Maximum Humidity 80    
Minimum Humidity 51    
Precipitation  
Precipitation 0.00 in - - ()
Sea Level Pressure  
Sea Level Pressure 30.16 in    
Wind  
Wind Speed 2 mph (NE)    
Max Wind Speed 7 mph    
Max Gust Speed -    
Visibility 10 miles    
Events      
Averages and records for this station are not official NWS values.
T = Trace of Precipitation, MM = Missing Value Source: NWS Daily Summary

Daily Weather History Graph

Daily Weather History Graph

Search for Another Location

Airport:

Trip Planner

Search our weather history database for the weather conditions in past years. The results will help you decide how hot, cold, wet, or windy it might be!

Date:

Astronomy

Feb. 12, 2014 Rise Set
Actual Time 6:50 AM CST 5:30 PM CST
Civil Twilight 6:22 AM CST 5:57 PM CST
Nautical Twilight 5:51 AM CST 6:29 PM CST
Astronomical Twilight 5:20 AM CST 6:59 PM CST
Moon 3:44 PM CST (2/12) 5:06 AM CST (2/12)
Length of Visible Light 11h 34m
Length of Day
10h 40m
Waxing Gibbous, 95% of the Moon is Illuminated
Feb 12
Waxing Gibbous
Feb 14
Full
Feb 22
Last Quarter
Mar 1
New
Mar 8
First Quarter

Hourly Weather History & Observations

Time (CST) Temp. Windchill Dew Point Humidity Pressure Visibility Wind Dir Wind Speed Gust Speed Precip Events Conditions
12:15 AM 8.6 °F - 1.4 °F 73% 30.35 in 10.0 mi Calm Calm - N/A   Clear
12:35 AM 5.4 °F - -0.4 °F 77% 30.34 in 10.0 mi Calm Calm - N/A   Clear
12:55 AM 3.2 °F - -1.7 °F 80% 30.33 in 10.0 mi Calm Calm - N/A   Clear
1:15 AM 3.7 °F - -1.1 °F 80% 30.32 in 10.0 mi Calm Calm - N/A   Clear
1:35 AM 5.9 °F -1.1 °F 0.7 °F 79% 30.33 in 10.0 mi NE 3.5 mph - N/A   Clear
1:55 AM 8.1 °F 1.4 °F 1.8 °F 75% 30.31 in 10.0 mi ENE 3.5 mph - N/A   Clear
2:15 AM 8.6 °F 2.0 °F 2.1 °F 75% 30.31 in 10.0 mi ENE 3.5 mph - N/A   Clear
2:35 AM 9.0 °F 2.4 °F 2.1 °F 74% 30.30 in 10.0 mi East 3.5 mph - N/A   Clear
2:55 AM 9.1 °F 2.6 °F 2.1 °F 73% 30.29 in 10.0 mi ENE 3.5 mph - N/A   Clear
3:15 AM 8.6 °F 2.0 °F 1.9 °F 74% 30.28 in 10.0 mi NE 3.5 mph - N/A   Clear
3:35 AM 7.9 °F 1.2 °F 1.6 °F 75% 30.28 in 10.0 mi NE 3.5 mph - N/A   Clear
3:55 AM 6.3 °F -0.7 °F 0.5 °F 77% 30.27 in 10.0 mi NE 3.5 mph - N/A   Clear
4:15 AM 4.1 °F - -1.1 °F 79% 30.28 in 10.0 mi Calm Calm - N/A   Clear
4:35 AM 6.4 °F - 0.9 °F 78% 30.27 in 10.0 mi Calm Calm - N/A   Clear
4:55 AM 8.1 °F 1.4 °F 1.9 °F 76% 30.26 in 10.0 mi East 3.5 mph - N/A   Clear
5:15 AM 8.6 °F - 2.3 °F 76% 30.25 in 10.0 mi Calm Calm - N/A   Clear
5:35 AM 8.6 °F - 2.3 °F 76% 30.25 in 10.0 mi Calm Calm - N/A   Clear
5:55 AM 8.1 °F 1.4 °F 1.8 °F 75% 30.25 in 10.0 mi ENE 3.5 mph - N/A   Clear
6:15 AM 7.9 °F 1.2 °F 1.9 °F 77% 30.25 in 10.0 mi NE 3.5 mph - N/A   Clear
6:35 AM 7.3 °F 0.5 °F 1.4 °F 77% 30.25 in 10.0 mi NE 3.5 mph - N/A   Clear
6:55 AM 7.7 °F - 1.9 °F 77% 30.25 in 10.0 mi Calm Calm - N/A   Clear
7:15 AM 6.6 °F -0.3 °F 1.0 °F 78% 30.25 in 10.0 mi East 3.5 mph - N/A   Clear
7:35 AM 9.1 °F - 3.0 °F 76% 30.25 in 10.0 mi Calm Calm - N/A   Clear
7:55 AM 10.2 °F 2.0 °F 3.6 °F 74% 30.24 in 10.0 mi East 4.6 mph - N/A   Clear
8:15 AM 12.2 °F - 4.3 °F 71% 30.25 in 10.0 mi Calm Calm - N/A   Clear
8:35 AM 13.8 °F 6.2 °F 5.5 °F 70% 30.25 in 10.0 mi East 4.6 mph - N/A   Clear
8:55 AM 15.6 °F 5.9 °F 6.3 °F 67% 30.24 in 10.0 mi East 6.9 mph - N/A   Clear
9:15 AM 17.4 °F 10.4 °F 7.3 °F 65% 30.23 in 10.0 mi East 4.6 mph - N/A   Clear
9:35 AM 18.3 °F 13.1 °F 8.1 °F 64% 30.22 in 10.0 mi East 3.5 mph - N/A   Clear
9:55 AM 19.4 °F 12.8 °F 8.6 °F 63% 30.22 in 10.0 mi East 4.6 mph - N/A   Clear
10:15 AM 20.7 °F 15.8 °F 9.9 °F 63% 30.22 in 10.0 mi East 3.5 mph - N/A   Clear
10:35 AM 21.4 °F 13.8 °F 10.4 °F 63% 30.23 in 10.0 mi North 5.8 mph - N/A   Clear
10:55 AM 20.8 °F 14.4 °F 11.8 °F 68% 30.21 in 10.0 mi NE 4.6 mph - N/A   Clear
11:15 AM 22.6 °F 18.0 °F 12.0 °F 64% 30.19 in 10.0 mi NNE 3.5 mph - N/A   Clear
11:35 AM 23.9 °F 18.0 °F 13.6 °F 65% 30.19 in 10.0 mi NNW 4.6 mph - N/A   Clear
11:55 AM 23.5 °F 19.1 °F 13.8 °F 66% 30.18 in 10.0 mi NNW 3.5 mph - N/A   Clear
12:15 PM 25.0 °F - 14.4 °F 64% 30.16 in 10.0 mi Calm Calm - N/A   Clear
12:35 PM 27.1 °F 23.2 °F 15.4 °F 61% 30.15 in 10.0 mi West 3.5 mph - N/A   Clear
12:55 PM 28.2 °F - 16.2 °F 61% 30.13 in 10.0 mi Calm Calm - N/A   Clear
1:15 PM 29.1 °F 25.4 °F 15.4 °F 57% 30.12 in 10.0 mi NNW 3.5 mph - N/A   Clear
1:35 PM 29.3 °F 25.6 °F 16.3 °F 58% 30.11 in 10.0 mi North 3.5 mph - N/A   Clear
1:55 PM 30.2 °F 25.4 °F 17.2 °F 59% 30.11 in 10.0 mi NNW 4.6 mph - N/A   Clear
2:15 PM 30.9 °F - 16.0 °F 54% 30.10 in 10.0 mi Calm Calm - N/A   Clear
2:35 PM 32.0 °F 27.5 °F 16.2 °F 52% 30.09 in 10.0 mi North 4.6 mph - N/A   Clear
2:55 PM 32.0 °F 28.7 °F 16.2 °F 52% 30.08 in 10.0 mi North 3.5 mph - N/A   Clear
3:15 PM 32.0 °F 28.7 °F 16.7 °F 53% 30.07 in 10.0 mi NNE 3.5 mph - N/A   Clear
3:35 PM 32.2 °F 27.7 °F 16.5 °F 53% 30.07 in 10.0 mi North 4.6 mph - N/A   Clear
3:55 PM 31.6 °F 26.0 °F 19.0 °F 60% 30.07 in 10.0 mi North 5.8 mph - N/A   Clear
4:15 PM 31.1 °F 24.5 °F 18.9 °F 61% 30.06 in 10.0 mi North 6.9 mph - N/A   Clear
4:35 PM 31.1 °F 26.4 °F 18.0 °F 58% 30.06 in 10.0 mi North 4.6 mph - N/A   Clear
4:55 PM 32.0 °F 28.7 °F 15.4 °F 51% 30.05 in 10.0 mi NNE 3.5 mph - N/A   Clear
5:15 PM 30.6 °F 27.1 °F 16.0 °F 55% 30.05 in 10.0 mi NNE 3.5 mph - N/A   Clear
5:35 PM 30.9 °F 27.5 °F 15.4 °F 53% 30.05 in 10.0 mi NE 3.5 mph - N/A   Clear
5:55 PM 30.6 °F - 14.9 °F 52% 30.05 in 10.0 mi Calm Calm - N/A   Clear
6:15 PM 27.1 °F 21.8 °F 16.0 °F 63% 30.05 in 10.0 mi NNE 4.6 mph - N/A   Clear
6:35 PM 25.7 °F - 15.1 °F 64% 30.06 in 10.0 mi Calm Calm - N/A   Clear
6:55 PM 26.6 °F 20.0 °F 14.5 °F 60% 30.06 in 10.0 mi NNE 5.8 mph - N/A   Clear
7:15 PM 26.8 °F 21.4 °F 13.8 °F 58% 30.07 in 10.0 mi NNE 4.6 mph - N/A   Clear
7:35 PM 23.5 °F 19.1 °F 13.5 °F 65% 30.07 in 10.0 mi NNE 3.5 mph - N/A   Clear
7:55 PM 25.3 °F 21.1 °F 14.0 °F 62% 30.07 in 10.0 mi ENE 3.5 mph - N/A   Clear
8:15 PM 25.5 °F 21.3 °F 14.0 °F 62% 30.07 in 10.0 mi NE 3.5 mph - N/A   Clear
8:35 PM 24.8 °F - 13.6 °F 63% 30.07 in 10.0 mi Calm Calm - N/A   Clear
8:55 PM 21.2 °F 14.9 °F 13.3 °F 72% 30.06 in 10.0 mi NE 4.6 mph - N/A   Clear
9:15 PM 23.7 °F 17.8 °F 13.8 °F 66% 30.05 in 10.0 mi NE 4.6 mph - N/A   Clear
9:35 PM 23.4 °F 18.9 °F 13.8 °F 67% 30.05 in 10.0 mi NE 3.5 mph - N/A   Clear
9:55 PM 21.6 °F 16.8 °F 13.5 °F 71% 30.03 in 10.0 mi ENE 3.5 mph - N/A   Clear
10:15 PM 20.8 °F 16.0 °F 12.9 °F 71% 30.02 in 10.0 mi East 3.5 mph - N/A   Clear
10:35 PM 21.9 °F 17.2 °F 13.3 °F 69% 30.01 in 10.0 mi East 3.5 mph - N/A   Clear
10:55 PM 19.9 °F - 12.6 °F 73% 30.00 in 10.0 mi Calm Calm - N/A   Clear
11:15 PM 16.0 °F - 10.4 °F 79% 30.00 in 10.0 mi Calm Calm - N/A   Clear
11:35 PM 17.1 °F - 11.8 °F 80% 30.00 in 10.0 mi Calm Calm - N/A   Clear
11:55 PM 16.5 °F - 11.3 °F 80% 30.00 in 10.0 mi Calm Calm - N/A   Clear